This demonstration page uses our WeatherBlox Daily Observations layout. Learn more.

Left ArrowRight Arrow

Hourly Observations for November 26, 2022

Temp ( °F °C ) Dew Point ( °F °C ) Humidity (%) Winds ( mph kmh ) Pressure ( in mb ) Visibility ( mi km ) Precip ( " mm )
12:53 am 00:53 Clear 26 -3.3 23 -5 88 88 Calm 30.24 1024 8 13 0.00 0.00
1:53 am 01:53 Clear 25 -3.9 22 -5.6 88 88 Calm 30.24 1024 9 14 0.00 0.00
2:53 am 02:53 Clear 24 -4.4 22 -5.6 91 91 Calm 30.24 1024 9 14 0.00 0.00
3:54 am 03:54 Cloudy with Mist and Fog 24 -4.4 22 -5.6 91 91 Calm 30.27 1025 1 1 0.00 0.00
4:02 am 04:02 Clear with Freezing Fog 24 -4.4 22 -5.6 91 91 Calm 30.27 1025 1 1 0.00 0.00
4:06 am 04:06 Clear with Mist and Fog 24 -4.4 21 -6.1 88 88 Calm 30.27 1025 2 3 0.00 0.00
4:13 am 04:13 Clear with Mist and Fog 24 -4.4 22 -5.6 91 91 Calm 30.27 1025 5 8 0.00 0.00
4:53 am 04:53 Clear 23 -5 21 -6.1 92 92 Calm 30.23 1024 9 14 0.00 0.00
5:29 am 05:29 Mostly Clear with Mist and Fog 21 -6.1 19 -7.2 92 92 Calm 30.27 1025 6 10 0.00 0.00
5:53 am 05:53 Mostly Cloudy 23 -5 20 -6.7 88 88 Calm 30.24 1024 8 13 0.00 0.00
6:00 am 06:00 Cloudy with Mist and Fog 22 -5.6 19 -7.2 88 88 Calm 30.26 1025 1 1 0.00 0.00
6:09 am 06:09 Cloudy with Freezing Fog 22 -5.6 21 -6.1 96 96 Calm 30.26 1025 0 0 0.00 0.00
6:23 am 06:23 Cloudy with Freezing Fog 23 -5 21 -6.1 92 92 Calm 30.26 1025 1 1 0.00 0.00
6:40 am 06:40 Partly Cloudy with Mist and Fog 22 -5.6 20 -6.7 92 92 Calm 30.26 1025 3 5 0.00 0.00
6:53 am 06:53 Clear 22 -5.6 20 -6.7 92 92 Calm 30.23 1024 7 11 0.00 0.00
7:20 am 07:20 Partly Cloudy with Mist and Fog 22 -5.6 19 -7.2 88 88 Calm 30.27 1025 6 10 0.00 0.00
7:45 am 07:45 Mostly Cloudy with Mist and Fog 22 -5.6 20 -6.7 92 92 Calm 30.28 1025 5 8 0.00 0.00
7:53 am 07:53 Partly Cloudy with Mist and Fog 22 -5.6 20 -6.7 92 92 Calm 30.25 1024 4 6 0.00 0.00
8:53 am 08:53 Sunny with Mist and Fog 29 -1.7 28 -2.2 96 96 Calm 30.24 1024 5 8 0.00 0.00
9:53 am 09:53 Sunny with Mist and Fog 36 2.2 33 0.6 89 89 E 3 6 30.23 1024 6 10 0.00 0.00
10:53 am 10:53 Sunny 46 7.8 35 1.7 65 65 ESE 6 9 30.21 1023 10 16 0.00 0.00
11:53 am 11:53 Sunny 52 11.1 34 1.1 50 50 VRB 5 7 30.16 1022 10 16 0.00 0.00
12:53 pm 12:53 Sunny 54 12.2 33 0.6 45 45 SSE 6 9 30.12 1020 10 16 0.00 0.00
1:53 pm 13:53 Sunny 55 12.8 32 0 41 41 VRB 5 7 30.09 1019 10 16 0.00 0.00
2:53 pm 14:53 Sunny 55 12.8 30 -1.1 38 38 VRB 3 6 30.06 1018 10 16 0.00 0.00
3:53 pm 15:53 Sunny 55 12.8 32 0 41 41 VRB 3 6 30.05 1018 10 16 0.00 0.00
4:53 pm 16:53 Sunny 49 9.4 33 0.6 54 54 Calm 30.04 1017 10 16 0.00 0.00
5:53 pm 17:53 Clear 42 5.6 32 0 67 67 Calm 30.03 1017 10 16 0.00 0.00
6:53 pm 18:53 Clear 39 3.9 31 -0.6 72 72 Calm 30.01 1016 10 16 0.00 0.00
7:53 pm 19:53 Clear 39 3.9 31 -0.6 72 72 Calm 29.98 1015 10 16 0.00 0.00
8:53 pm 20:53 Clear 40 4.4 32 0 73 73 E 3 6 29.96 1014 10 16 0.00 0.00
9:53 pm 21:53 Clear 44 6.7 34 1.1 67 67 Calm 29.91 1013 10 16 0.00 0.00
10:53 pm 22:53 Mostly Cloudy with Light Rain 46 7.8 35 1.7 65 65 VRB 3 6 29.89 1012 10 16 0.01 0.13
11:53 pm 23:53 Cloudy with Light Rain 46 7.8 40 4.4 79 79 VRB 3 6 29.85 1011 7 11 0.04 1.02

Powered by AerisWeather